www.pogodaiklimat.ru

Погода и климат >> Архив погоды >> Антарктида >> Rothera


ПОГОДА в Rothera

  • Прогноз погоды в Rothera
  • Монитор погоды в Rothera
  • Климат города

АРХИВ ПОГОДЫ в Rothera

Время (UTC), дата Ветер
(напр.,м/с)
 
Видим.   Явления Облачность Т
(С)
Тd
(С)
f
(%)
Тe
(С)
Тes
(С)
Комфортность P
(гПа)
Po
(гПа)
Тmin
(С)
Tmax
(С)
R
(мм)
R24
(мм)
S
(см)
10 15.11 З 4 н/о н/о -1.5 -3.7 85 -7 -7 985.8 981.6
11 15.11 СВ 2 н/о н/о -1.4 -4.1 82 -5 -5 985.6 981.4
12 15.11 С 3 15 км слабый снег 10/8 600 м
[Sc]
-1.1 -3.5 84 -6 -5 985.3 981.1 -2.2 +0.6
14 15.11 СВ 2 н/о н/о -0.2 -2.2 86 -3 -3 984.6 980.5
13 15.11 С 2 н/о н/о -0.8 -2.5 88 -5 -5 984.9 980.7
15 15.11 СВ 9 35 км {снег} 10/8 600 м
[Sc]
+1.8 -1.2 80 -5 -5 984.2 980.1
16 15.11 СВ 7 н/о н/о +2.0 -1.1 80 -4 -4 984.3 980.2
17 15.11 СВ 7 н/о н/о +2.1 -0.8 81 -4 -4 984.3 980.2
18 15.11 С 9 40 км 10/8 600 м
[Sc Ac trans]
+2.0 -0.6 83 -5 -5 984.1 980.0
19 15.11 С 7 н/о н/о +1.7 -0.6 85 -5 -5 984.2 980.1
21 15.11 С 9 30 км слабый дождь 10/9 600 м
[Sc]
+1.4 -0.4 88 -6 -6 983.8 979.7
22 15.11 СВ 8 н/о н/о +1.9 -0.2 86 -5 -5 983.7 979.6
23 15.11 С 9 н/о н/о +2.1 -0.1 85 -5 -5 983.6 979.5
00 16.11 С 13 40 км 10/5 600 м
[Sc Ac trans]
+2.5 0.0 84 -6 -6 983.0 978.9 -1.1 +2.5
01 16.11 С 11 н/о н/о +2.3 0.0 85 -5 -5 983.0 978.9
02 16.11 С 9 н/о н/о +1.8 +0.3 90 -6 -6 982.9 978.8
03 16.11 С 10 н/о н/о +2.1 +0.3 88 -6 -6 982.6 978.5
04 16.11 С 11 н/о н/о +2.0 +0.1 87 -6 -6 982.4 978.3
05 16.11 СВ 12 н/о н/о +1.5 0.0 90 -7 -7 982.0 977.9
06 16.11 СВ 11 н/о н/о +1.5 +0.2 91 -7 -7 982.3 978.2
07 16.11 СВ 11 н/о н/о +1.8 +0.2 89 -6 -6 982.5 978.4
08 16.11 СВ 9 н/о н/о +1.4 +0.1 91 -6 -6 982.5 978.4
09 16.11 СВ 10 н/о н/о +1.5 -0.1 89 -6 -6 982.4 978.3
10 16.11 СВ 11 н/о н/о +1.6 -0.1 88 -7 -7 982.3 978.2
11 16.11 СВ 10 н/о н/о +2.3 +0.2 86 -5 -5 982.8 978.7
12 16.11 СВ 9 30 км в посл. час дождь 9/5 450 м
[Sc Ac trans]
+2.6 -0.1 82 -4 -4 983.1 979.0 +1.2 +2.7
13 16.11 СВ 10 н/о н/о +2.4 -0.3 82 -5 -5 983.1 979.0
14 16.11 СВ 12 н/о н/о +2.3 -0.6 81 -6 -6 982.9 978.8
15 16.11 СВ 12 20 км {дождь} 8/3 600 м
[Sc Ac trans]
+2.5 -0.4 81 -5 -5 983.0 978.9
16 16.11 СВ 13 н/о н/о +2.9 -0.3 79 -5 -5 983.0 978.9
17 16.11 СВ 11 н/о н/о +3.2 -0.7 76 -4 -4 983.6 979.5
18 16.11 СВ 9 20 км {дождь} 6/3 600 м
[Sc Ac trans]
+2.5 -0.9 78 -5 -4 983.9 979.8
19 16.11 С 9 н/о н/о +2.3 -1.0 79 -5 -5 984.4 980.3
20 16.11 С 9 н/о н/о +2.7 -0.9 77 -4 -4 984.4 980.3
21 16.11 С 8 40 км 5/1 600 м
[Sc Ac lent]
+2.4 -1.1 78 -4 -4 984.8 980.7
22 16.11 СВ 6 н/о н/о +2.0 -1.2 79 -4 -4 985.2 981.1
23 16.11 СВ 6 н/о н/о +1.6 -1.0 83 -5 -5 985.4 981.3
00 17.11 С 8 45 км 4/1 600 м
[Sc Ac trans]
+1.8 -1.2 80 -5 -5 985.2 981.1 +1.3 +3.4
01 17.11 СВ 8 н/о н/о +1.3 -1.0 85 -6 -6 985.4 981.3
02 17.11 СВ 10 н/о н/о +1.4 -1.1 83 -6 -6 985.2 981.1
03 17.11 С 5 н/о н/о +0.7 -1.1 88 -5 -5 985.6 981.5
04 17.11 СВ 6 н/о н/о +0.9 -0.9 88 -5 -5 985.5 981.4
05 17.11 СВ 4 н/о н/о +0.7 -1.0 88 -5 -5 985.4 981.3
06 17.11 СВ 5 н/о н/о +0.2 -1.4 89 -6 -6 985.2 981.1
07 17.11 С 6 н/о н/о +0.6 -1.4 86 -6 -6 984.9 980.8
08 17.11 С 6 н/о н/о +0.7 -1.5 85 -6 -6 984.7 980.6
09 17.11 С 7 н/о н/о +0.9 -1.6 83 -6 -6 984.4 980.3
10 17.11 С 8 н/о н/о +1.0 -2.1 80 -6 -6 984.0 979.9
11 17.11 С 10 н/о н/о +0.9 -2.2 80 -7 -7 983.6 979.5
12 17.11 С 9 55 км слабый снег 10/10 540 м
[Sc Ac lent]
+0.6 -2.4 80 -7 -7 983.3 979.2 +0.2 +1.8
13 17.11 С 6 н/о н/о +1.0 -2.4 78 -5 -5 983.0 978.9
14 17.11 С 11 н/о н/о +0.7 -2.4 80 -8 -8 982.2 978.1
15 17.11 СВ 10 н/о н/о +0.3 -2.4 82 -8 -8 981.9 977.8
16 17.11 С 13 н/о н/о +0.4 -2.4 81 -8 -8 981.2 977.1
17 17.11 С 10 н/о н/о +0.7 -2.6 79 -7 -7 980.8 976.7
18 17.11 СВ 11 65 км 9/9 540 м
[Sc]
+0.5 -2.2 82 -8 -8 980.3 976.2
19 17.11 С 9 н/о н/о +0.4 -2.4 81 -7 -7 979.9 975.8
20 17.11 С 12 н/о н/о 0.0 -2.2 85 -9 -9 979.4 975.3
21 17.11 СВ 11 55 км 10/8 540 м
[Sc As op]
0.0 -2.1 86 -9 -9 978.8 974.7
22 17.11 СВ 12 н/о н/о -0.3 -2.2 87 -9 -9 977.9 973.8
23 17.11 СВ 11 н/о н/о -0.4 -3.5 80 -9 -9 977.2 973.1
00 18.11 СВ 11 >70 км 10/3 540 м
[Sc As op]
-1.2 -3.2 86 -10 -10 976.7 972.5 -1.2 +1.0
01 18.11 СВ 13 н/о н/о -1.3 -3.0 88 -11 -11 975.8 971.6
02 18.11 СВ 12 н/о н/о -1.1 -2.8 88 -10 -10 975.2 971.0
03 18.11 СВ 10 н/о н/о -0.9 -2.6 88 -9 -9 974.7 970.5
04 18.11 СВ 11 н/о н/о -1.0 -2.3 91 -10 -10 973.8 969.6
05 18.11 СВ 11 н/о н/о -0.6 -2.2 89 -9 -9 973.0 968.9
06 18.11 С 12 н/о н/о -0.8 -2.3 90 -10 -10 972.9 968.7
07 18.11 СВ 9 н/о н/о -0.8 -1.9 92 -9 -9 973.6 969.4
08 18.11 СВ 9 н/о н/о -0.7 -2.1 90 -9 -9 974.0 969.8
09 18.11 СВ 7 н/о н/о -0.6 -2.3 88 -8 -8 974.6 970.5
10 18.11 В 6 н/о н/о -0.9 -2.1 92 -8 -8 975.4 971.2
11 18.11 С 7 н/о н/о -0.4 -2.7 84 -7 -7 975.9 971.8
12 18.11 СВ 8 20 км слабый снег 10/8 540 м
[Sc]
-0.6 -3.0 84 -8 -8 976.5 972.4 -1.4 -0.3
13 18.11 СВ 8 н/о н/о -0.8 -2.8 86 -8 -8 977.3 973.1
14 18.11 С 8 н/о н/о -1.0 -2.7 88 -9 -9 977.9 973.7
15 18.11 С 7 3000 м слабый снег 10/8 480 м
[Sc]
-0.9 -2.5 89 -8 -8 978.6 974.4
16 18.11 С 7 н/о н/о -0.8 -3.4 83 -8 -8 979.2 975.0
17 18.11 С 5 н/о н/о -0.6 -3.3 82 -7 -7 979.6 975.5
18 18.11 СВ 7 40 км {снег} 8/5 600 м
[Sc Ac trans Ci fib]
-0.3 -3.6 78 -7 -7 980.1 976.0
19 18.11 СВ 7 н/о н/о -0.3 -3.9 77 -7 -7 980.7 976.6
20 18.11 СВ 7 н/о н/о -0.6 -4.1 77 -8 -8 981.2 977.1
21 18.11 С 7 4000 м слабый снег 10/8 600 м
[Sc Ac trans]
-0.7 -4.3 77 -8 -8 982.0 977.8
22 18.11 В 4 н/о н/о -1.3 -3.3 86 -7 -7 982.7 978.5
23 18.11 В 3 н/о н/о -1.7 -3.4 88 -6 -6 983.1 978.9
00 19.11 В 1 4000 м слабый снег 10/10 540 м
[Sc]
-2.1 -2.9 94 -5 -5 983.8 979.6 -2.1 +0.1
01 19.11 В 1 н/о н/о -2.2 -3.3 92 -3 -3 984.3 980.1
02 19.11 В 2 н/о н/о -1.6 -4.6 80 -5 -5 984.6 980.4
03 19.11 В 6 н/о н/о -1.2 -6.2 69 -8 -8 985.0 980.8
04 19.11 В 7 н/о н/о -1.3 -7.2 64 -8 -8 985.4 981.2
05 19.11 В 7 н/о н/о -1.4 -7.6 63 -9 -9 985.9 981.7
06 19.11 В 6 н/о н/о -1.6 -8.2 61 -8 -8 986.5 982.3
07 19.11 В 7 н/о н/о -1.8 -8.3 61 -9 -9 986.9 982.7
08 19.11 В 9 н/о н/о -2.0 -8.9 59 -10 -10 987.4 983.2
09 19.11 В 8 н/о н/о -1.9 -9.1 58 -9 -9 988.1 983.9
10 19.11 В 6 н/о н/о -1.6 -7.8 63 -8 -8 988.8 984.6
11 19.11 В 5 н/о н/о -1.4 -8.4 59 -7 -7 989.4 985.2
12 19.11 В 4 60 км 1/0
[Ac trans]
-1.4 -8.7 58 -7 -4 989.8 985.6 -2.2 -1.1
13 19.11 З 2 н/о н/о -0.9 -6.6 65 -4 -4 990.4 986.2
14 19.11 З 4 н/о н/о -0.7 -6.6 64 -6 -6 990.9 986.7
15 19.11 Ю 6 60 км 1/0
[As trans]
-0.2 -6.0 65 -6 -2 991.2 987.1
16 19.11 Ю 6 н/о н/о -0.7 -6.4 65 -7 -7 991.4 987.3
17 19.11 ЮЗ 5 н/о н/о +0.7 -5.9 61 -5 -5 991.8 987.7
18 19.11 Ю 6 н/о н/о +0.1 -7.0 59 -6 -6 992.1 988.0
19 19.11 Ю 4 н/о н/о +0.1 -6.2 63 -5 -5 992.3 988.2
20 19.11 Ю 3 н/о н/о 0.0 -5.6 66 -4 -4 992.4 988.3
21 19.11 Ю 3 55 км 1/1 1350 м
[Sc Ac As]
-0.2 -5.6 67 -4 -0 992.5 988.4
22 19.11 Ю 4 н/о н/о -0.2 -5.1 70 -5 -5 992.7 988.6
23 19.11 Ю 5 н/о н/о -1.1 -4.7 77 -7 -7 992.8 988.6
00 20.11 Ю 6 55 км 4/1 750 м
[Sc Ac As Cc]
-1.3 -3.5 85 -8 -8 992.7 988.5 -1.4 +0.7
01 20.11 ЮВ 3 н/о н/о -1.4 -4.4 80 -6 -6 992.7 988.5
02 20.11 С 3 н/о н/о -1.7 -4.3 82 -7 -7 992.3 988.1
03 20.11 СЗ 3 н/о н/о -1.3 -3.0 88 -6 -6 991.9 987.7
04 20.11 СЗ 3 н/о н/о -1.7 -3.7 86 -6 -6 991.7 987.5
05 20.11 С 2 н/о н/о -1.9 -3.5 89 -5 -5 991.5 987.3
06 20.11 С 1 н/о н/о -2.0 -3.7 88 -4 -4 991.2 987.0
07 20.11 Ю 4 н/о н/о -2.4 -4.2 87 -8 -8 991.3 987.1
08 20.11 Ю 4 н/о н/о -2.4 -4.2 87 -8 -8 991.3 987.1
09 20.11 Ю 3 н/о н/о -2.3 -4.2 87 -7 -7 991.1 986.9
10 20.11 ЮВ 2 н/о н/о -2.6 -4.6 86 -7 -7 991.1 986.9
11 20.11 ЮВ 3 н/о н/о -2.5 -4.9 84 -7 -7 991.1 986.9
12 20.11 ЮВ 5 н/о н/о -2.4 -5.3 80 -9 -9 990.8 986.6 -2.6 -1.3
13 20.11 ЮВ 4 н/о н/о -2.1 -5.1 80 -8 -8 990.6 986.4
14 20.11 ЮВ 4 н/о н/о -2.1 -4.9 81 -8 -8 990.7 986.5
15 20.11 ЮВ 6 55 км слабый снег 10/9 540 м
[Sc]
-2.4 -4.8 84 -9 -9 990.3 986.1
16 20.11 ЮВ 5 н/о н/о -2.4 -4.7 84 -9 -9 990.4 986.2
17 20.11 ЮВ 3 н/о н/о -2.2 -4.5 84 -7 -7 990.5 986.3
18 20.11 СВ 2 15 км слабый снег 10/6 420 м
[St Ac trans]
-1.8 -4.1 84 -5 -3 990.4 986.2
19 20.11 С 2 н/о н/о -1.2 -4.4 79 -4 -4 990.5 986.3
20 20.11 СВ 1 н/о н/о -0.9 -4.1 79 -3 -3 990.6 986.4
21 20.11 СВ 2 8000 м слабый снег 10/5 420 м
[Sc Ac trans]
-0.9 -3.6 82 -4 -3 990.6 986.4
22 20.11 С 2 н/о н/о -0.9 -3.6 82 -4 -4 990.7 986.5
23 20.11 В 2 н/о н/о -1.5 -3.3 88 -5 -5 990.9 986.7
00 21.11 Ю 4 45 км {снег} 9/4 540 м
[Sc Ac trans]
-0.5 -3.1 83 -6 -6 990.8 986.7 -2.4 -0.5
01 21.11 Ю 9 н/о н/о -1.3 -3.5 85 -10 -10 991.0 986.8
02 21.11 Ю 11 н/о н/о -2.0 -4.1 86 -11 -11 991.6 987.4
03 21.11 Ю 9 н/о н/о -2.4 -4.0 89 -11 -11 992.3 988.1
04 21.11 Ю 8 н/о н/о -2.5 -4.3 87 -11 -11 992.7 988.5
05 21.11 Ю 7 н/о н/о -2.3 -4.4 85 -10 -10 993.2 989.0
06 21.11 Ю 7 н/о н/о -2.4 -4.6 85 -10 -10 993.7 989.5
07 21.11 Ю 6 н/о н/о -2.5 -4.8 84 -10 -10 994.4 990.2
08 21.11 ЮЗ 4 н/о н/о -2.6 -5.0 84 -9 -9 995.0 990.8
09 21.11 Ю 5 н/о н/о -2.6 -4.9 84 -9 -9 995.3 991.1
10 21.11 Ю 6 н/о н/о -3.5 -4.5 93 -11 -11 995.7 991.5
11 21.11 Ю 4 н/о н/о -2.9 -4.6 88 -9 -9 995.6 991.4
12 21.11 Ю 3 55 км 9/9 180 м
[St]
-2.8 -4.7 87 -8 -7 995.8 991.6 -3.5 -0.5
13 21.11 Ю 3 н/о н/о -2.2 -4.6 84 -7 -7 995.8 991.6
14 21.11 Ю 3 н/о н/о -2.0 -4.5 83 -7 -7 996.0 991.8
15 21.11 ЮЗ 2 55 км 8/8 270 м
[St]
-1.8 -4.4 82 -6 -4 995.9 991.7
16 21.11 ЮЗ 2 н/о н/о -1.6 -4.4 81 -5 -5 995.8 991.6
17 21.11 Ю 2 н/о н/о -1.6 -4.4 81 -5 -5 995.6 991.4
18 21.11 ЮЗ 2 70 км 3/3 210 м
[St]
-0.8 -3.8 80 -4 +4 995.3 991.1
19 21.11 ЮВ 2 н/о н/о -2.5 -4.7 85 -6 -6 995.2 991.0
20 21.11 ЮВ 2 н/о н/о -2.3 -4.3 86 -6 -6 995.1 990.9
21 21.11 Ю 2 70 км 1/1 210 м
[St Ci fib]
-1.5 -4.1 82 -5 0 994.7 990.5
22 21.11 СВ 1 н/о н/о -1.3 -4.0 82 -3 -3 994.2 990.0
23 21.11 С 2 н/о н/о -1.3 -3.9 82 -5 -5 993.6 989.4
00 22.11 С 4 70 км 1/1 210 м
[St Ci fib]
-1.8 -4.3 83 -8 -7 992.8 988.6 -2.8 -0.4
01 22.11 С 3 н/о н/о -2.2 -4.6 84 -7 -7 992.1 987.9
02 22.11 С 4 н/о н/о -2.6 -5.3 82 -8 -8 991.0 986.8
03 22.11 С 4 н/о н/о -2.7 -6.3 76 -8 -8 990.3 986.1
04 22.11 С 3 н/о н/о -2.5 -6.0 77 -8 -8 989.5 985.3
06 22.11 СВ 5 н/о н/о -2.3 -5.9 76 -9 -9 987.9 983.7
07 22.11 С 3 н/о н/о -2.4 -7.6 67 -7 -7 987.1 982.9

 

Местоположение метеостанции Rothera (Антарктида): широта -67.56 долгота -68.13 высота над уровнем моря 16 м.

В архиве по умолчанию представлена погода в Rothera за последнюю неделю. Архивные данные за месяц целиком и за предыдущие месяцы, начиная с января 2011 года, Вы можете получить, выбрав интересующий диапазон дат из раскрывающегося списка и нажав кнопку "Ввод!".

Внимание! Время в таблицах - всемирное. Для получения местного времени необходимо прибавить поправку, которая в Rothera равна 0 ч.

Смотрите также архив погоды в соседних городах и на ближайших метеорологических станциях:

Погода в San Martin Base (Антарктида) (74 км)
Погода в Larsen Ice Shelf (Антарктида) (289 км)
Погода в Vernadsky (Антарктида) (309 км)
Погода в Palmer Station (Антарктида) (361 км)
Погода в Fossil Bluff (Антарктида) (419 км)
Погода в Butler Island (Антарктида) (598 км)
Погода в Marambio Base (Антарктида) (636 км)
Погода в Juan Carlos Island (Антарктида) (653 км)
Погода в Bernardo o`Higgins (Антарктида) (667 км)
Погода в Captain Arturo Prat Base (Антарктида) (687 км)

Пояснения к столбцам:

Ветер - указаны скорость ветра в м/с - средняя за 10 мин, порывы в срок и между сроками (в фигурных скобках) и направление, откуда дует ветер: С - северный, СВ - северо-восточный, В - восточный, ЮВ - юго-восточный, Ю - южный, ЮЗ - юго-западный, З - западный, СЗ - северо-западный.
Видимость - горизонтальная дальность видимости в метрах или километрах. При видимости от 1 до 10 км при отсутствии осадков обычно наблюдается дымка, при ухудшении видимости до 1 км и менее - туман. В сухую погоду видимость может ухудшаться дымом, пылью или мглою.
Явления - указаны атмосферные явления, наблюдавшиеся в срок или в последний час перед сроком; фигурными скобками обозначены явления, наблюдавшиеся между сроками (за 1-3 часа до срока); квадратными скобками обозначены град или гололедные отложения с указанием их диаметра в мм.
Облачность - указаны через наклонную черту общая и нижняя облачность в баллах и высота нижней границы облаков в метрах; квадратными скобками обозначены формы облаков: Ci - перистые, Cs - перисто-слоистые, Cc - перисто-кучевые, Ac - высококучевые, As - высокослоистые, Sc - слоисто-кучевые, Ns - слоисто-дождевые, Cu - кучевые, Cb - кучево-дождевые. Подробнее классификацию облаков см. в Атласе облаков (PDF).
T - Температура воздуха - температура, измеренная на высоте 2 м над землей.
Td - Температура точки росы - температура, при понижении до которой содержащийся в воздухе водяной пар достигнет насыщения.
f - Относительная влажность воздуха - влажноcть воздуха, измеренная на высоте 2 м над землей.
Te - Эффективная температура - температура, которую ощущает одетый по сезону человек в тени. Характеристика душности погоды. При расчете учитывается влияние влажности воздуха и скорости ветра на теплоощущения человека.
Tes - Эффективная температура на солнце - температура, которую ощущает человек, с поправкой на солнечный нагрев. Характеристика знойности погоды. Зависит от высоты солнца над горизонтом, облачности и скорости ветра. Ночью, в пасмурную погоду, а также при ветре 12 м/с и более поправка равна нулю.
P - Атмосферное давление - приведенное к уровню моря атмосферное давление.
Po - Атмосферное давление - измеренное на уровне метеостанции атмосферное давление.
Tmin - Минимальная температура - минимум температуры воздуха на высоте 2 м над землей.
Tmax - Максимальная температура - максимум температуры воздуха на высоте 2 м над землей.
R - Количество осадков - Количество выпавших осадков за период времени, мм. При наведении курсора мыши на число - период времени, за который выпало указанное количество осадков.
R24 - Количество осадков - Количество выпавших осадков за 24 часа, мм.
S - Снежный покров - Высота снежного покрова, см. При наведении курсора мыши на число - состояние снежного покрова и степень покрытия местности в баллах.